Location: Rowland
(34.5359°N, 79.2929°W)
Time: 21:04:30
(UTC+00:00)

Vanguard 1 Rocket - Visible Passes

Search period start: 30 September 2022 00:00
Search period end: 10 October 2022 00:00
Orbit: 651 x 4225 km, 34.3° (Epoch: 30 September)

Date Brightness Start Highest point End Pass type
(mag) Time Alt. Az. Time Alt. Az. Time Alt. Az.
30 Sep 9.0 01:32:03 10° WSW 01:51:41 70° SSE 01:53:20 65° SE visible
30 Sep 10.5 04:05:46 10° W 04:10:38 23° W 04:10:38 23° W visible
01 Oct 9.7 00:16:39 10° SW 00:38:29 58° SSE 00:46:09 30° E visible
01 Oct 9.4 02:50:03 10° WSW 03:03:25 56° WSW 03:03:25 56° WSW visible
01 Oct 10.4 23:02:11 10° SW 23:24:44 47° SSE 23:38:35 10° E visible
02 Oct 9.0 01:33:57 10° WSW 01:54:16 77° SSE 01:56:11 68° ESE visible
02 Oct 10.5 04:08:13 10° W 04:13:28 24° W 04:13:28 24° W visible
03 Oct 9.7 00:18:06 10° SW 00:40:57 67° SSE 00:48:55 31° E visible
03 Oct 9.5 02:52:24 10° W 03:06:11 57° W 03:06:11 57° W visible
03 Oct 10.4 23:03:09 10° SW 23:27:04 55° SSE 23:41:35 10° E visible
04 Oct 9.0 01:36:01 10° WSW 01:56:53 83° S 01:58:53 71° E visible
04 Oct 10.5 04:10:41 10° W 04:16:09 24° W 04:16:09 24° W visible
05 Oct 9.7 00:19:49 10° WSW 00:43:26 74° SSE 00:51:32 33° E visible
05 Oct 9.5 02:54:46 10° W 03:08:48 57° W 03:08:48 57° W visible
05 Oct 10.3 23:04:26 10° SW 23:29:21 63° SSE 23:44:10 11° E visible
06 Oct 9.1 01:38:13 10° W 01:59:31 87° S 02:01:25 73° E visible
06 Oct 10.5 04:13:06 10° W 04:18:41 24° W 04:18:41 24° W visible
07 Oct 9.7 00:21:45 10° WSW 00:45:54 81° SSE 00:54:01 34° E visible
07 Oct 9.6 02:57:08 10° W 03:11:17 56° W 03:11:17 56° W visible
07 Oct 10.3 23:06:01 10° SW 23:31:39 71° SSE 23:46:36 12° E visible
08 Oct 9.1 01:40:30 10° W 02:02:10 89° S 02:03:52 75° E visible
08 Oct 10.6 04:15:29 10° WNW 04:21:07 24° W 04:21:07 24° W visible
09 Oct 9.7 00:23:51 10° WSW 00:48:24 85° S 00:56:25 36° E visible
09 Oct 9.7 02:59:29 10° W 03:13:41 55° W 03:13:41 55° W visible
09 Oct 10.3 23:07:51 10° WSW 23:33:57 77° SSE 23:48:58 14° E visible
